KC1UIX-13 Weather Reports


Display with metric or nautical units.
time (UTC)temp
F
wind
direction
speed
MPH
gust
MPH
rain 1hr
in
rain 24hr
in
rain mn
in
humidity
%
barometer
mb
20260510195018 55 215 2.0 4.0 0.00 0.19 0.00 89 1011.6
20260510194018 56 219 3.0 8.0 0.00 0.19 0.00 87 1011.7
20260510193018 58 231 2.0 6.0 0.00 0.19 0.00 83 1011.8
20260510192018 57 316 2.0 6.0 0.00 0.19 0.00 84 1011.7
20260510191018 56 234 2.0 6.0 0.00 0.20 0.00 87 1011.9
20260510190019 55 233 2.0 6.0 0.00 0.20 0.00 87 1011.8
20260510185019 54 215 2.0 6.0 0.00 0.21 0.00 90 1011.9
20260510184019 55 242 2.0 5.0 0.00 0.22 0.00 87 1012.3
20260510183019 56 269 1.0 4.0 0.00 0.22 0.00 87 1012.5
20260510182039 56 230 2.0 7.0 0.00 0.24 0.00 87 1012.6
20260510181020 57 290 1.0 3.0 0.00 0.25 0.00 85 1012.7
20260510180020 55 265 2.0 5.0 0.00 0.27 0.00 89 1012.8
20260510175040 54 218 2.0 8.0 0.00 0.30 0.00 90 1012.7
20260510174100 55 227 2.0 6.0 0.00 0.32 0.00 89 1012.8
20260510173020 56 226 3.0 7.0 0.00 0.35 0.00 86 1012.9
20260510172018 57 267 2.0 7.0 0.00 0.37 0.00 84 1012.9
20260510171018 57 284 2.0 4.0 0.00 0.39 0.00 84 1012.8
20260510170017 57 247 1.0 6.0 0.00 0.41 0.00 83 1012.9
20260510165018 57 332 1.0 6.0 0.00 0.42 0.00 83 1012.8
20260510164021 58 213 2.0 7.0 0.00 0.44 0.00 83 1012.9
20260510163018 58 301 2.0 5.0 0.00 0.46 0.00 84 1012.9
20260510162018 57 256 1.0 5.0 0.00 0.48 0.00 85 1012.9
20260510161018 57 228 2.0 6.0 0.00 0.49 0.00 84 1012.9
20260510160038 57 267 1.0 4.0 0.00 0.50 0.00 85 1012.8
20260510155039 56 237 1.0 4.0 0.00 0.50 0.00 87 1012.9
20260510154019 56 240 1.0 4.0 0.00 0.50 0.00 86 1012.9
20260510153038 56 306 1.0 5.0 0.00 0.51 0.00 88 1013.0
20260510152019 55 254 2.0 7.0 0.00 0.51 0.00 89 1013.0
20260510151019 55 231 1.0 5.0 0.00 0.51 0.00 90 1012.9
20260510150039 54 226 2.0 6.0 0.00 0.51 0.00 90 1012.9
20260510145019 54 305 1.0 6.0 0.00 0.51 0.00 91 1013.0
20260510144017 53 264 1.0 5.0 0.00 0.51 0.00 93 1013.0
20260510143017 53 234 2.0 7.0 0.00 0.51 0.00 94 1013.0
20260510142017 53 247 1.0 5.0 0.00 0.51 0.00 95 1013.0
20260510141017 53 239 2.0 7.0 0.00 0.51 0.00 97 1012.9
20260510140040 53 279 1.0 5.0 0.00 0.51 0.00 98 1012.8
20260510135018 53 329 1.0 4.0 0.00 0.51 0.00 99 1012.8
20260510134018 52 336 1.0 3.0 0.00 0.51 0.00 100 1012.8
20260510133018 51 275 1.0 2.0 0.00 0.51 0.00 100 1012.9
20260510132018 51 310 0.0 2.0 0.00 0.51 0.00 100 1013.0
20260510131018 51 9 0.0 2.0 0.00 0.51 0.00 100 1013.0
20260510130018 50 263 1.0 4.0 0.00 0.51 0.00 100 1013.0
20260510125019 51 221 1.0 4.0 0.00 0.51 0.00 100 1013.1
20260510124019 51 252 1.0 3.0 0.00 0.51 0.00 100 1013.0
20260510123019 50 218 1.0 3.0 0.00 0.51 0.00 100 1012.9
20260510122019 49 234 2.0 4.0 0.00 0.51 0.00 99 1012.9
20260510121019 49 238 2.0 4.0 0.00 0.51 0.00 99 1012.8
20260510120039 49 242 2.0 6.0 0.00 0.51 0.00 99 1012.8
20260510115016 49 239 3.0 7.0 0.00 0.51 0.00 99 1012.7
20260510114017 49 236 2.0 5.0 0.00 0.51 0.00 99 1012.4
20260510113017 49 227 1.0 3.0 0.00 0.51 0.00 99 1012.2
20260510112040 48 218 1.0 4.0 0.00 0.51 0.00 99 1012.2
20260510111020 48 230 2.0 5.0 0.00 0.51 0.00 99 1012.2
20260510110017 48 246 1.0 4.0 0.00 0.51 0.00 99 1012.0
20260510105018 48 247 2.0 5.0 0.00 0.51 0.00 99 1012.1
20260510104018 48 249 2.0 5.0 0.00 0.51 0.00 99 1011.9
20260510103018 48 266 2.0 4.0 0.00 0.51 0.00 99 1011.8
20260510102018 47 245 2.0 5.0 0.00 0.51 0.00 99 1011.9
20260510101018 47 256 1.0 6.0 0.00 0.51 0.00 99 1011.7
20260510100018 47 254 1.0 3.0 0.00 0.51 0.00 99 1011.7
20260510095039 47 244 1.0 3.0 0.00 0.51 0.00 99 1011.8
20260510094019 47 267 1.0 2.0 0.00 0.51 0.00 99 1011.7
20260510093019 47 253 1.0 3.0 0.00 0.51 0.00 99 1011.7
20260510092019 47 244 1.0 3.0 0.00 0.51 0.00 99 1011.6
20260510091039 47 264 1.0 2.0 0.00 0.51 0.00 99 1011.7
20260510090016 48 262 1.0 2.0 0.00 0.51 0.00 99 1011.7
20260510085016 48 252 1.0 2.0 0.00 0.51 0.00 99 1011.7
20260510084020 48 258 0.0 2.0 0.00 0.51 0.00 99 1011.7
20260510083020 48 260 1.0 2.0 0.00 0.51 0.00 99 1011.5
20260510082037 48 294 0.0 2.0 0.00 0.51 0.00 99 1011.3
20260510081037 48 273 0.0 1.0 0.00 0.51 0.00 99 1011.5
20260510080018 48 259 1.0 2.0 0.00 0.51 0.00 99 1011.6
20260510075017 48 255 1.0 2.0 0.00 0.51 0.00 99 1011.5
20260510074018 48 258 1.0 2.0 0.00 0.51 0.00 99 1011.4
20260510073040 48 256 1.0 3.0 0.00 0.51 0.00 99 1011.5
20260510072018 48 255 0.0 2.0 0.00 0.51 0.00 99 1011.3
20260510071018 48 272 0.0 2.0 0.00 0.51 0.00 99 1011.3
20260510070018 48 253 0.0 1.0 0.00 0.51 0.00 99 1011.2
20260510065018 48 272 0.0 2.0 0.00 0.51 0.00 99 1011.5
20260510064018 48 261 0.0 1.0 0.00 0.51 0.00 99 1011.7
20260510063018 48 262 0.0 2.0 0.00 0.51 0.00 99 1011.8
20260510062019 48 253 0.0 1.0 0.00 0.51 0.00 99 1011.9
20260510061019 48 262 0.0 2.0 0.00 0.51 0.00 99 1012.0
20260510060039 48 263 1.0 2.0 0.00 0.51 0.00 99 1012.1
20260510055019 47 269 1.0 2.0 0.00 0.51 0.00 99 1012.1
20260510054016 47 259 1.0 3.0 0.00 0.51 0.00 99 1012.2
20260510053017 47 310 0.0 2.0 0.00 0.51 0.00 99 1012.3
20260510052017 47 316 0.0 2.0 0.00 0.51 0.00 99 1012.5
20260510051040 47 309 1.0 2.0 0.00 0.51 0.00 99 1012.5
20260510050017 47 315 0.0 2.0 0.00 0.51 0.00 99 1012.4
20260510045017 48 303 0.0 2.0 0.00 0.51 0.00 99 1012.3
20260510044017 47 302 0.0 2.0 0.00 0.51 0.00 99 1012.3
20260510043017 47 311 0.0 2.0 0.00 0.51 0.00 99 1012.5
20260510042041 47 312 1.0 3.0 0.00 0.51 0.00 99 1012.5
20260510041017 47 317 1.0 3.0 0.00 0.51 0.00 99 1012.7
20260510040038 47 325 1.0 3.0 0.00 0.51 0.00 99 1012.7
20260510035018 47 327 1.0 3.0 0.00 0.51 0.51 99 1012.9
20260510034039 47 322 1.0 3.0 0.00 0.51 0.51 99 1013.0
20260510033019 46 332 1.0 3.0 0.00 0.51 0.51 99 1013.1
20260510032019 46 331 1.0 3.0 0.00 0.51 0.51 99 1013.2
20260510031016 46 324 2.0 4.0 0.00 0.51 0.51 99 1013.2
20260510030039 46 315 1.0 4.0 0.00 0.51 0.51 99 1013.3
20260510025020 46 315 1.0 4.0 0.00 0.51 0.51 99 1013.4
20260510024020 46 313 2.0 4.0 0.00 0.51 0.51 99 1013.4
20260510023020 46 323 2.0 4.0 0.00 0.51 0.51 99 1013.3
20260510022017 46 326 2.0 4.0 0.01 0.51 0.51 99 1013.2
20260510021017 46 330 1.0 3.0 0.01 0.51 0.51 99 1013.2
20260510020017 46 326 2.0 5.0 0.01 0.51 0.51 99 1013.3
20260510015041 46 323 2.0 5.0 0.01 0.51 0.51 99 1013.3
20260510014018 46 322 2.0 5.0 0.01 0.51 0.51 99 1013.4
20260510013018 46 305 2.0 5.0 0.02 0.51 0.51 99 1013.3
20260510012018 46 307 3.0 6.0 0.03 0.50 0.50 99 1013.1
20260510011018 46 308 1.0 5.0 0.04 0.50 0.50 99 1013.0
20260510010019 45 305 1.0 4.0 0.05 0.50 0.50 99 1012.9
20260510005019 45 292 1.0 3.0 0.08 0.50 0.50 99 1012.9
20260510004018 45 286 1.0 2.0 0.09 0.49 0.49 99 1013.1
20260510003019 45 277 0.0 2.0 0.09 0.48 0.48 99 1013.1
20260510002059 45 284 1.0 2.0 0.08 0.47 0.47 99 1013.0
20260510001039 45 4 1.0 2.0 0.06 0.46 0.46 99 1012.9
20260510000019 45 12 1.0 4.0 0.06 0.44 0.44 99 1013.0
20260509235016 45 65 1.0 3.0 0.04 0.42 0.42 99 1013.0
20260509234016 45 58 1.0 3.0 0.03 0.41 0.41 99 1013.0
20260509233020 45 333 1.0 2.0 0.02 0.40 0.40 99 1013.0
20260509232020 45 31 1.0 2.0 0.03 0.39 0.39 99 1013.0
20260509231040 45 64 1.0 3.0 0.04 0.39 0.39 99 1012.9
20260509230017 45 96 0.0 2.0 0.05 0.39 0.39 99 1012.9
20260509225017 45 100 1.0 2.0 0.04 0.38 0.38 100 1013.0
20260509224017 45 112 1.0 2.0 0.04 0.38 0.38 100 1013.0
20260509223017 45 89 1.0 3.0 0.04 0.38 0.38 100 1013.0
20260509222040 45 105 1.0 4.0 0.03 0.36 0.36 100 1013.1
20260509221018 45 118 1.0 3.0 0.01 0.35 0.35 99 1013.2
20260509220018 45 96 1.0 2.0 0.01 0.34 0.34 99 1013.2
20260509215018 45 99 1.0 3.0 0.02 0.34 0.34 99 1013.3
20260509214018 45 95 1.0 2.0 0.02 0.34 0.34 99 1013.6
20260509213018 45 123 1.0 2.0 0.01 0.34 0.34 99 1013.7
20260509212019 45 133 1.0 2.0 0.01 0.33 0.33 99 1014.0
20260509211018 45 117 1.0 3.0 0.01 0.33 0.33 99 1014.1
20260509210059 45 101 0.0 2.0 0.00 0.33 0.33 99 1014.0
20260509205039 46 104 1.0 3.0 0.00 0.32 0.32 98 1014.1
20260509204019 46 36 1.0 3.0 0.00 0.32 0.32 99 1014.2
20260509203020 46 328 1.0 4.0 0.00 0.32 0.32 99 1013.8
20260509202017 46 2 2.0 4.0 0.00 0.32 0.32 99 1013.6
20260509201017 46 325 2.0 4.0 0.01 0.32 0.32 99 1014.0
20260509200017 46 11 2.0 4.0 0.02 0.32 0.32 99 1013.5